Location: Barrio Las Umbrías
(40.4173°N, 4.8685°W)
Time: 12:25:34
(UTC+00:00)

Okean 3 Rocket - Pass Details

Date: 17 August 2022
Orbit: 615 x 644 km, 82.5° (Epoch: 27 September)

Event Time Altitude Azimuth Distance (km) Brightness Sun altitude
Exits shadow 21:04:22 - 197° (SSW) 2,050 6.0 -19.3°
Reaches altitude 10° 21:04:29 10° 198° (SSW) 2,003 6.0 -19.3°
Maximum altitude 21:08:53 63° 279° (W) 703 4.0 -20.0°
Drops below altitude 10° 21:13:17 10° 1° (N) 2,000 6.7 -20.6°
Sets 21:15:32 0° 5° (N) 2,907 7.5 -20.9°
